sat.trackr.live / text

‹ back to catalog

STARLINK-30603

NORAD 58080 · 2023-160F

PAYLOAD ACTIVE UNKNOWN

§ Identity

Operator
Country
US
Launch date
2023-10-18
Launch site
AFETR
Launch vehicle
Mass (kg)
RCS (m²)

Purposes: comms

External: N2YO · Heavens-Above · Gunter

§ Orbital elements

Epoch: 2026-09-20T03:15:55.388736Z

Period
94.27 min
Inclination
43.0022°
Eccentricity
0.0001138
Mean motion
15.27576400 rev/d
Perigee alt
482.3 km
Apogee alt
483.8 km
Semi-major
6,861.2 km
B*
-5.9433e-6
RAAN
59.7772°
Arg perigee
276.7779°
Mean anomaly
83.2943°
Rev number
16,268

§ Raw data

STARLINK-306031 58080U 23160F   26263.13605774 -.00000426  00000+0 -59433-5 0  99972 58080  43.0022  59.7772 0001138 276.7779  83.2943 15.27576400162688

JSON: /api/v1/satellites/58080 · /tle

For live sub-satellite position, see the globe view (requires WebGL).

§ Visibility from observer

Set your observer location to see the next 7 days of passes ≥ 10°. The values pass through the URL so the page stays shareable.

No JS? Fill the form by hand. The geolocation button needs JavaScript.